Ostrava, Czech Republic

9:23 AM CEST on July 26, 2017 (GMT +0200)
Mosnov

Weather History for LKMT - April, 2013

Change the Weather History Date:

Tuesday, April 9, 2013

  Actual Average Record
Temperature  
Mean Temperature 36 °F -  
Max Temperature 42 °F 59 °F - ()
Min Temperature 31 °F 39 °F - ()
Degree Days  
Heating Degree Days 28    
Moisture  
Dew Point 33 °F    
Average Humidity 88    
Maximum Humidity 100    
Minimum Humidity 75    
Precipitation  
Precipitation 0.00 in 0.08 in - ()
Sea Level Pressure  
Sea Level Pressure 29.76 in    
Wind  
Wind Speed 3 mph ()    
Max Wind Speed 7 mph    
Max Gust Speed -    
Visibility 2.9 miles    
Events Rain    
T = Trace of Precipitation, MM = Missing Value Source: Averaged Metar Reports

Daily Weather History Graph

Daily Weather History Graph

Search for Another Location

Airport or City:

Trip Planner

Search our weather history database for the weather conditions in past years. The results will help you decide how hot, cold, wet, or windy it might be!

Date:

Astronomy

Apr. 09, 2013 Rise Set
Actual Time 6:07 AM CEST 7:31 PM CEST
Civil Twilight 5:34 AM CEST 8:04 PM CEST
Nautical Twilight 4:54 AM CEST 8:45 PM CEST
Astronomical Twilight 4:10 AM CEST 9:29 PM CEST
Moon 5:24 AM CEST (4/9) 6:47 PM CEST (4/9)
Length of Visible Light 14h 30m
Length of Day
13h 23m
Waning Crescent, 1% of the Moon is Illuminated
Apr 9
Waning Crescent
Apr 10
New
Apr 18
First Quarter
Apr 25
Full
May 2
Last Quarter

Hourly Weather History & Observations

Time (CEST) Temp. Windchill Dew Point Humidity Pressure Visibility Wind Dir Wind Speed Gust Speed Precip Events Conditions
12:00 AM 33.8 °F - 26.6 °F 75% 29.77 in 4.3 mi SSW 2.3 mph - N/A   Mostly Cloudy
12:30 AM 33.8 °F 30.8 °F 26.6 °F 75% 29.77 in 4.3 mi SSW 3.5 mph - N/A   Mostly Cloudy
1:00 AM 33.8 °F - 28.4 °F 81% 29.77 in 4.3 mi Variable 1.2 mph - N/A   Partly Cloudy
1:30 AM 32.0 °F - 26.6 °F 80% 29.77 in 4.3 mi SW 1.2 mph - N/A   Overcast
2:00 AM 32 °F - 28 °F 79% 29.82 in 4 mi North 2.2 mph - -   Mist
2:00 AM 32.0 °F - 28.4 °F 87% 29.77 in 3.7 mi Calm Calm - N/A   Overcast
2:30 AM 32.0 °F - 28.4 °F 87% 29.77 in 3.7 mi Variable 1.2 mph - N/A   Overcast
3:00 AM 33.8 °F - 28.4 °F 81% 29.77 in 3.7 mi Variable 1.2 mph - N/A   Overcast
3:30 AM 33.8 °F - 28.4 °F 81% 29.77 in 3.7 mi Variable 2.3 mph - N/A   Overcast
4:00 AM 33.8 °F - 30.2 °F 87% 29.74 in 3.7 mi Variable 2.3 mph - N/A Rain Light Rain
4:30 AM 33.8 °F - 30.2 °F 87% 29.74 in 3.1 mi Variable 2.3 mph - N/A Rain Light Rain
5:00 AM 32.0 °F - 30.2 °F 93% 29.74 in 3.1 mi Variable 2.3 mph - N/A Rain Light Rain
5:09 AM 32.0 °F - 30.2 °F 93% 29.74 in 2.8 mi Variable 2.3 mph - N/A Rain Light Rain
5:30 AM 32.0 °F - 30.2 °F 93% 29.74 in 2.8 mi NE 2.3 mph - N/A Rain Light Rain
6:00 AM 32.0 °F 28.7 °F 30.2 °F 93% 29.74 in 2.5 mi ENE 3.5 mph - N/A Rain Light Rain
6:30 AM 32.0 °F 27.5 °F 30.2 °F 93% 29.74 in 2.2 mi NE 4.6 mph - N/A Rain Light Rain
6:31 AM 32.0 °F 26.4 °F 32.0 °F 100% 29.74 in 1.4 mi NE 5.8 mph - N/A Rain Light Rain
7:00 AM 32.0 °F 26.4 °F 32.0 °F 100% 29.74 in 1.1 mi NNE 5.8 mph - N/A Rain Light Rain
7:30 AM 33.8 °F 28.6 °F 32.0 °F 93% 29.74 in 1.2 mi NNE 5.8 mph - N/A Rain Light Rain
8:00 AM 34 °F - 33 °F 94% 29.80 in 2 mi NNE 6.7 mph - - Rain Light Rain
8:00 AM 33.8 °F 28.6 °F 33.8 °F 100% 29.74 in 1.7 mi NNE 5.8 mph - N/A Rain Light Rain
8:30 AM 33.8 °F 28.6 °F 33.8 °F 100% 29.74 in 2.2 mi NE 5.8 mph - N/A Rain Light Rain
9:00 AM 33.8 °F 29.6 °F 33.8 °F 100% 29.74 in 2.2 mi NE 4.6 mph - N/A Rain Light Rain
9:30 AM 35.6 °F 32.8 °F 33.8 °F 93% 29.77 in 2.2 mi NE 3.5 mph - N/A   Overcast
10:00 AM 35.6 °F 32.8 °F 33.8 °F 93% 29.77 in 2.2 mi ENE 3.5 mph - N/A   Overcast
10:30 AM 37.4 °F - 33.8 °F 87% 29.77 in 2.2 mi Variable 1.2 mph - N/A   Overcast
11:00 AM 37.4 °F - 35.6 °F 93% 29.77 in 2.5 mi Variable 2.3 mph - N/A   Overcast
11:30 AM 37.4 °F - 35.6 °F 93% 29.77 in 2.8 mi Variable 2.3 mph - N/A   Overcast
12:00 PM 37.4 °F - 35.6 °F 93% 29.77 in 3.1 mi North 2.3 mph - N/A   Overcast
12:30 PM 39.2 °F - 35.6 °F 87% 29.77 in 3.1 mi Variable 1.2 mph - N/A   Overcast
1:00 PM 39.2 °F - 35.6 °F 87% 29.77 in 3.1 mi Variable 1.2 mph - N/A   Overcast
1:30 PM 39.2 °F - 35.6 °F 87% 29.77 in 3.1 mi Variable 2.3 mph - N/A   Overcast
2:00 PM 40 °F - 36 °F 80% 29.80 in 3 mi NE 2.2 mph - - Rain Light Rain Showers
2:00 PM 41.0 °F - 35.6 °F 81% 29.77 in 3.1 mi Variable 2.3 mph - N/A Rain Light Rain Showers
2:30 PM 41.0 °F - 35.6 °F 81% 29.74 in 3.1 mi NE 2.3 mph - N/A   Overcast
3:00 PM 41.0 °F 39.0 °F 37.4 °F 87% 29.74 in 3.1 mi NE 3.5 mph - N/A   Overcast
3:30 PM 41.0 °F 39.0 °F 37.4 °F 87% 29.74 in 3.1 mi NNE 3.5 mph - N/A   Overcast
4:00 PM 41.0 °F - 37.4 °F 87% 29.74 in 3.1 mi NNE 2.3 mph - N/A   Overcast
4:30 PM 41.0 °F 39.0 °F 37.4 °F 87% 29.74 in 3.1 mi NNE 3.5 mph - N/A   Overcast
5:00 PM 41.0 °F 38.0 °F 37.4 °F 87% 29.74 in 3.1 mi NNE 4.6 mph - N/A   Overcast
5:30 PM 41.0 °F 39.0 °F 37.4 °F 87% 29.74 in 3.1 mi NNE 3.5 mph - N/A   Overcast
6:00 PM 41.0 °F 39.0 °F 37.4 °F 87% 29.74 in 3.7 mi ENE 3.5 mph - N/A   Overcast
6:30 PM 41.0 °F 39.0 °F 35.6 °F 81% 29.74 in 5.0 mi ENE 3.5 mph - N/A   Mostly Cloudy
7:00 PM 41.0 °F 39.0 °F 35.6 °F 81% 29.74 in 3.7 mi ENE 3.5 mph - N/A   Mostly Cloudy
7:30 PM 39.2 °F 37.0 °F 35.6 °F 87% 29.74 in 3.1 mi ENE 3.5 mph - N/A   Scattered Clouds
8:00 PM 40 °F - 36 °F 78% 29.79 in 3 mi 2.2 mph - -   Mist
8:00 PM 39.2 °F - 35.6 °F 87% 29.74 in 3.1 mi East 2.3 mph - N/A   Scattered Clouds
8:30 PM 39.2 °F 37.0 °F 35.6 °F 87% 29.74 in 3.7 mi NE 3.5 mph - N/A   Partly Cloudy
9:00 PM 37.4 °F - 33.8 °F 87% 29.74 in 3.1 mi ENE 2.3 mph - N/A   Partly Cloudy
9:30 PM 37.4 °F - 35.6 °F 93% 29.74 in 2.8 mi North 2.3 mph - N/A   Mostly Cloudy
10:00 PM 35.6 °F 32.8 °F 33.8 °F 93% 29.74 in 2.2 mi North 3.5 mph - N/A   Mostly Cloudy
10:30 PM 35.6 °F 32.8 °F 33.8 °F 93% 29.74 in 1.6 mi North 3.5 mph - N/A   Scattered Clouds
11:00 PM 35.6 °F - 35.6 °F 100% 29.74 in 1.4 mi NNE 2.3 mph - N/A   Scattered Clouds
11:30 PM 35.6 °F - 33.8 °F 93% 29.77 in 1.2 mi Variable 1.2 mph - N/A   Partly Cloudy